[[{"header":{"parameterUnit":"m.s-1","parameterCategory":1,"la1":30.2991,"la2":30.254,"lo1":-89.0895,"lo2":-89.0444,"dy":0.0017,"dx":0.0017,"nx":28,"ny":28,"refTime":"2023-11-06T03:00:00:Z","depth":0,"parameterNumber":2,"parameterNumberName":"U-component_of_WINDS"},"data":[0,0,0,0,0,0,0,0,0,0,0,0,0,0,0,0,0,0,0,0,0,0,0,0,0,0,0,0,0,0,0,0,0,0,0,0,0,0,0,0,0,0,0,0,0,0,0,0,0,0,0,0,0,0,0,0,0,0,0.8944,0.8946,0,0.9092,0.9094,0.9096,0.9105,0.9103,0.9102,0.91,0.9255,0.926,0.9266,0,0,0,0,0,0,0,0,0,0,0,0,0,0.867,0.8675,0.8944,0.8946,0.8948,0.9092,0.9094,0.9096,0.9105,0.9103,0.9101,0.9099,0.9253,0.926,0.9266,0,0,0,0,0,0,0,0,0,0,0,0,0,0.8801,0.8677,0.8944,0.897,0.8973,0.9092,0.9094,0.9097,0.9106,0.9103,0.9101,0.9098,0.9251,0.9259,0.9267,0.9371,0,0,0.9293,0.9297,0,0,0,0,0,0,0,0,0.8794,0.8811,0.8964,0.8968,0.8972,0.9077,0.9054,0.9189,0.9106,0.9056,0.91,0.9097,0.9198,0.9211,0.9244,0.9378,0.9385,0.9294,0.9299,0.9303,0.9306,0,0,0,0,0,0,0,0.8785,0.8805,0.9003,0.8966,0.8971,0.8974,0.899,0.908,0.9139,0.906,0.9061,0.9078,0.92,0.9236,0.9248,0.9387,0.9294,0.9302,0.9307,0.931,0.9612,0.9615,0,0,0,0,0,0,0.877,0.8797,0.8998,0.9007,0.8875,0.8981,0.8999,0.9046,0.9138,0.915,0.908,0.9078,0.9223,0.9238,0.9253,0.938,0.9303,0.9311,0.9316,0.9609,0.9613,0.9616,0,0,0,0,0,0,0.8764,0.8788,0.8992,0.8903,0.8929,0.8989,0.9042,0.9051,0.9087,0.9154,0.9164,0.9106,0.9221,0.9241,0.9341,0.9386,0.9315,0.9323,0.9606,0.961,0.9614,0.9635,0,0,0,0,0,0,0.8756,0.8786,0.8826,0.8903,0.8933,0.9077,0.9045,0.9055,0.9101,0.91,0.9181,0.9192,0.9221,0.9328,0.935,0.9396,0.9329,0.9602,0.9608,0.9613,0.963,0.9639,0.9647,0,0,0,0,0,0.8747,0.8826,0.8828,0.8852,0.8984,0.9079,0.9097,0.9128,0.9105,0.9145,0.9188,0.9189,0.9377,0.9338,0.9362,0.9412,0.9599,0.9606,0.9612,0.9627,0.9637,0.9646,0,0,0,0,0,0,0.8754,0.8837,0.8839,0.8946,0.9005,0.9081,0.9133,0.9138,0.9206,0.9202,0.9238,0.9257,0.9355,0.9394,0.9349,0.9517,0.9486,0.9497,0.9488,0.9499,0.9507,0.9496,0.9336,0,0,0,0,0,0.8767,0.8837,0.8906,0.8994,0.9023,0.9073,0.9116,0.9134,0.9197,0.9223,0.9273,0.9335,0.9408,0.9455,0.9526,0.9635,0.9653,0.9681,0.9689,0.9696,0.9706,0.9766,0.9779,0.9637,0.9637,0.9637,0,0,0.8797,0.8851,0.8893,0.8997,0.9045,0.9117,0.9094,0.9172,0.9225,0.9235,0.9332,0.9371,0.9442,0.9547,0.9595,0.9582,0.9749,0.9704,0.9709,0.9716,0.9774,0.9787,0.9799,0.9642,0.9641,0.964,0,0,0.8888,0.8935,0.9014,0.9062,0.9134,0.9166,0.9185,0.9259,0.9285,0.9382,0.9391,0.9455,0.958,0.9631,0.9673,0.978,0.9784,0.9802,0.9846,0.9904,0.9915,0.9925,0.9964,0.9977,0.9812,0.9812,0.9812,0,0.8916,0.9024,0.9053,0.913,0.9176,0.9186,0.9265,0.9311,0.9403,0.9434,0.9417,0.9573,0.9622,0.9738,0.9764,0.9798,0.9821,0.9794,0.9911,0.9921,0.9931,0.9969,0.9983,0.9814,0.9814,0.9813,0.9813,0,0.9055,0.913,0.9184,0.9271,0.9323,0.94,0.9442,0.949,0.9504,0.9537,0.9636,0.9695,0.9777,0.9806,0.9821,0.9924,0.9913,0.9903,0.9873,0.9946,0.9982,0.9996,0.9816,0.9816,0.9815,0.9815,0,0,0.9156,0.9257,0.9277,0.9316,0.9396,0.9455,0.9533,0.9612,0.9653,0.9716,0.9782,0.9886,0.9877,0.9925,0.9945,0.9995,1.0077,0.9979,0.9981,0.9995,1.0194,1.0202,1.0218,1.0079,1.0082,1.0084,1.0188,0,0.9256,0.9395,0.9423,0.9543,0.9612,0.9621,0.9689,0.9746,0.9779,0.9843,0.988,0.9953,0.9935,0.9964,1.0014,1.0056,1.0117,1.0049,1.0142,1.0145,1.0124,1.0237,1.0245,1.0341,1.0202,1.0205,1.0206,0,0.9392,0.9457,0.9583,0.9653,0.9683,0.9743,0.9818,0.9878,0.9942,0.9963,1.0015,1.0029,1.011,1.0075,1.0188,1.014,1.018,1.0206,1.021,1.0221,1.0181,1.0251,1.0373,1.0387,1.0229,1.0227,1.0225,0,0.9454,0.9572,0.9663,0.9697,0.978,0.9822,0.9859,0.992,0.9966,1.0031,1.006,1.0134,1.0175,1.0232,1.0266,1.0237,1.0376,1.0343,1.0396,1.0395,1.0426,1.0424,1.0556,1.045,1.045,1.0449,1.0449,0,0.9563,0.9641,0.9692,0.9748,0.9834,0.9865,0.995,0.9987,1.0041,1.0104,1.0117,1.0176,1.0216,1.0282,1.0308,1.0397,1.0416,1.0435,1.0441,1.0434,1.0432,1.0462,1.0456,1.0453,1.0452,1.0452,1.0451,0,0.9648,0.9685,0.9785,0.9854,0.9874,0.9935,0.9995,1.0049,1.0081,1.0162,1.0182,1.0233,1.031,1.0349,1.0445,1.0463,1.0564,1.0566,1.0542,1.0545,1.0595,1.059,1.0752,1.0774,1.0652,1.0653,1.0654,0,0.9715,0.9775,0.985,0.9893,0.993,1.0,1.0045,1.0078,1.0125,1.0201,1.0247,1.0324,1.0388,1.051,1.0557,1.063,1.0634,1.0686,1.0645,1.0636,1.0635,1.0632,1.0638,1.0693,1.0694,1.0695,1.0696,0,0.9832,0.9847,0.9913,0.9984,1.0038,1.0097,1.0154,1.0189,1.023,1.0283,1.0361,1.041,1.0507,1.0584,1.066,1.0698,1.0705,1.0708,1.0724,1.0718,1.0702,1.0712,1.0562,1.0705,1.0704,1.0703,1.0703,1.0702,0.9911,0.9964,1.0025,1.0097,1.0143,1.0196,1.025,1.0289,1.0354,1.0435,1.045,1.0533,1.0594,1.0697,1.0737,1.0803,1.0792,1.0815,1.0821,1.0826,1.0829,1.069,1.0817,1.0817,1.0816,1.0816,1.0816,0,1.0028,1.0067,1.0133,1.0213,1.0269,1.0268,1.0331,1.0379,1.0451,1.0507,1.0569,1.0658,1.0732,1.0783,1.0858,1.0901,1.0905,1.0919,1.0917,1.0926,1.0835,1.0813,1.0914,1.0914,1.0914,1.0914,1.0914,1.0914,1.0096,1.0185,1.0207,1.0319,1.0358,1.0439,1.0475,1.0523,1.0568,1.0667,1.0728,1.076,1.0814,1.0893,1.096,1.0973,1.1001,1.1015,1.1028,1.0942,1.0932,1.0922,1.0902,1.102,1.102,1.1114,1.1114,1.1115]},{"header":{"parameterUnit":"m.s-1","parameterCategory":1,"la1":30.2991,"la2":30.254,"lo1":-89.0895,"lo2":-89.0444,"dy":0.0017,"dx":0.0017,"nx":28,"ny":28,"refTime":"2023-11-06T03:00:00:Z","depth":0,"parameterNumber":3,"parameterNumberName":"V-component_of_WINDS"},"data":[0,0,0,0,0,0,0,0,0,0,0,0,0,0,0,0,0,0,0,0,0,0,0,0,0,0,0,0,0,0,0,0,0,0,0,0,0,0,0,0,0,0,0,0,0,0,0,0,0,0,0,0,0,0,0,0,0,0,3.2915,3.2915,0,3.2924,3.2924,3.2924,3.2894,3.2894,3.2893,3.2892,3.2899,3.29,3.2901,0,0,0,0,0,0,0,0,0,0,0,0,0,3.2871,3.2872,3.2915,3.2915,3.2915,3.2924,3.2924,3.2924,3.2895,3.2894,3.2892,3.2891,3.2899,3.29,3.2901,0,0,0,0,0,0,0,0,0,0,0,0,0,3.2886,3.2872,3.2915,3.2902,3.2901,3.2924,3.2924,3.2924,3.2895,3.2893,3.2892,3.2891,3.2898,3.29,3.2901,3.2937,0,0,3.2906,3.2907,0,0,0,0,0,0,0,0,3.2885,3.2888,3.2904,3.2903,3.2901,3.2907,3.2911,3.2928,3.2895,3.2897,3.2892,3.289,3.2903,3.2904,3.2908,3.2938,3.2938,3.2906,3.2907,3.2908,3.2908,0,0,0,0,0,0,0,3.2884,3.2887,3.2918,3.2904,3.2903,3.2895,3.2895,3.2914,3.2907,3.2897,3.2895,3.2896,3.2902,3.2907,3.2908,3.2938,3.2906,3.2907,3.2908,3.2909,3.2997,3.2998,0,0,0,0,0,0,3.2885,3.2886,3.2918,3.2919,3.289,3.2897,3.2897,3.2906,3.2907,3.2906,3.2897,3.2895,3.2905,3.2906,3.2908,3.295,3.2908,3.2909,3.291,3.2995,3.2997,3.2999,0,0,0,0,0,0,3.2884,3.2888,3.2918,3.2902,3.2905,3.2899,3.2909,3.2907,3.2912,3.2907,3.2906,3.2904,3.2904,3.2906,3.293,3.295,3.291,3.2911,3.2994,3.2996,3.2998,3.3034,0,0,0,0,0,0,3.2883,3.2888,3.2902,3.2903,3.2906,3.294,3.291,3.2908,3.2915,3.2912,3.2913,3.2912,3.2903,3.2928,3.2932,3.2951,3.2912,3.2992,3.2995,3.2997,3.3031,3.3037,3.3042,0,0,0,0,0,3.2882,3.2912,3.2903,3.2907,3.2924,3.2942,3.2943,3.2933,3.2917,3.293,3.2927,3.2912,3.2947,3.2931,3.2935,3.2955,3.2991,3.2994,3.2997,3.3028,3.3036,3.3042,0,0,0,0,0,0,3.2913,3.2911,3.2902,3.2933,3.2938,3.2937,3.2953,3.2941,3.295,3.2947,3.2933,3.2934,3.296,3.296,3.2942,3.2989,3.2966,3.297,3.2988,3.2995,3.3001,3.3,3.2914,0,0,0,0,0,3.2924,3.2939,3.2937,3.2964,3.2967,3.296,3.2967,3.2959,3.2963,3.2965,3.2963,3.2967,3.2979,3.2987,3.2998,3.3031,3.303,3.3046,3.3052,3.3057,3.306,3.3077,3.3084,3.3009,3.3009,3.3009,0,0,3.2946,3.2947,3.2957,3.297,3.2973,3.2988,3.2962,3.2979,3.299,3.2967,3.299,3.2989,3.2993,3.3021,3.3034,3.3022,3.3081,3.3061,3.3064,3.3065,3.3081,3.3088,3.3094,3.3011,3.3011,3.3011,0,0,3.2993,3.2996,3.3019,3.3022,3.3027,3.3022,3.3028,3.3028,3.3027,3.305,3.3033,3.3045,3.3067,3.307,3.3074,3.3123,3.3109,3.3127,3.3156,3.3172,3.3178,3.3183,3.32,3.3206,3.313,3.3131,3.3131,0,3.3019,3.3042,3.3032,3.3051,3.3057,3.3037,3.306,3.3064,3.3071,3.3076,3.3063,3.3089,3.309,3.3118,3.313,3.3135,3.314,3.3126,3.3178,3.3183,3.3188,3.3203,3.321,3.3133,3.3132,3.3132,3.3132,0,3.3074,3.309,3.3108,3.3117,3.3125,3.3146,3.3138,3.3147,3.3138,3.3135,3.3158,3.3159,3.3169,3.3175,3.3167,3.3203,3.3195,3.318,3.3156,3.3197,3.3211,3.3217,3.3136,3.3135,3.3134,3.3134,0,0,3.3141,3.3143,3.315,3.3153,3.3157,3.3169,3.3189,3.32,3.3208,3.3214,3.3229,3.3248,3.3234,3.3239,3.3231,3.3245,3.3283,3.3228,3.3228,3.3238,3.3322,3.3332,3.3339,3.3274,3.3275,3.3276,3.3321,0,3.3186,3.322,3.3212,3.3245,3.326,3.3242,3.3259,3.3263,3.326,3.3271,3.3268,3.3281,3.3263,3.3265,3.3279,3.3276,3.33,3.3272,3.3287,3.3288,3.3286,3.3347,3.3358,3.34,3.3327,3.3328,3.3328,0,3.3244,3.3253,3.3288,3.329,3.3295,3.3311,3.332,3.3331,3.3335,3.3332,3.3338,3.3327,3.3345,3.3322,3.3347,3.3329,3.3335,3.3334,3.3336,3.3336,3.331,3.3348,3.3414,3.3419,3.3337,3.3337,3.3336,0,3.3288,3.3309,3.3332,3.3336,3.3338,3.335,3.3351,3.3354,3.3361,3.3368,3.3372,3.3382,3.3387,3.3395,3.3386,3.3371,3.3413,3.3389,3.341,3.341,3.3418,3.3418,3.3485,3.3424,3.3424,3.3424,3.3424,0,3.3339,3.3361,3.3352,3.3366,3.339,3.338,3.3404,3.3403,3.3406,3.3419,3.3404,3.3417,3.3406,3.3417,3.3411,3.3432,3.3435,3.3432,3.343,3.3433,3.3433,3.3435,3.3432,3.3426,3.3425,3.3425,3.3425,0,3.3392,3.3386,3.3411,3.3411,3.3412,3.3429,3.343,3.3442,3.3439,3.3456,3.346,3.3454,3.3467,3.346,3.3473,3.3468,3.3496,3.349,3.3495,3.3493,3.3513,3.3511,3.3584,3.3592,3.3527,3.3528,3.3528,0,3.3424,3.3441,3.3443,3.3452,3.3454,3.3468,3.3475,3.3465,3.3473,3.3479,3.3491,3.3503,3.3512,3.3533,3.353,3.354,3.3534,3.3559,3.3535,3.3537,3.3533,3.3531,3.3533,3.3563,3.3564,3.3564,3.3565,0,3.3482,3.3479,3.349,3.35,3.351,3.3517,3.3523,3.3531,3.3522,3.3531,3.3545,3.3552,3.3565,3.3577,3.3585,3.3586,3.3574,3.3572,3.3578,3.358,3.3581,3.358,3.3506,3.357,3.357,3.3569,3.3569,3.3569,3.3525,3.3538,3.3542,3.3555,3.3559,3.3565,3.3577,3.3576,3.3587,3.3598,3.3592,3.3607,3.361,3.3621,3.3623,3.3635,3.3625,3.3632,3.3634,3.3636,3.3638,3.3581,3.3636,3.3636,3.3636,3.3636,3.3636,0,3.3581,3.3583,3.3595,3.3604,3.3614,3.3603,3.3609,3.3618,3.3632,3.3637,3.3646,3.3661,3.3673,3.3671,3.3681,3.369,3.3685,3.3693,3.3692,3.3692,3.3647,3.3641,3.3697,3.3697,3.3697,3.3697,3.3697,3.3697,3.3611,3.3633,3.3631,3.3655,3.3656,3.3672,3.3676,3.3682,3.3685,3.3703,3.3713,3.3711,3.3713,3.3723,3.3733,3.3732,3.3736,3.3746,3.3743,3.3701,3.3695,3.3689,3.3683,3.3748,3.3748,3.3787,3.3787,3.3787]}]]